FW4620 Weather Reports


time (UTC)temp
C
wind
direction
speed
KPH
gust
KPH
rain 1hr
cm
rain 24hr
cm
rain mn
cm
humidity
%
barometer
mb
20260507181519 12 261 0.0 0.0 0.00 0.20 0.20 85 1010.9
20260507180034 12 194 0.0 0.0 0.00 0.20 0.20 87 1011.1
20260507174522 12 194 0.0 0.0 0.00 0.20 0.20 87 1011.2
20260507173019 12 194 0.0 0.0 0.00 0.20 0.20 87 1011.5
20260507171517 12 194 0.0 0.0 0.00 0.20 0.20 87 1011.5
20260507170018 12 49 0.0 0.0 0.00 0.20 0.20 85 1011.6
20260507164515 12 49 0.0 0.0 0.00 0.20 0.20 84 1011.9
20260507163014 12 49 0.0 0.0 0.00 0.20 0.20 84 1012.0
20260507161520 12 48 0.0 0.0 0.00 0.20 0.20 84 1012.0
20260507160013 12 48 0.0 0.0 0.00 0.20 0.20 84 1011.9
20260507154512 12 71 0.0 0.0 0.00 0.20 0.20 84 1012.0
20260507153012 13 360 1.6 3.2 0.00 0.20 0.20 84 1012.0
20260507151517 13 344 0.0 3.2 0.00 0.20 0.20 85 1011.8
20260507150013 13 349 0.0 3.2 0.00 0.20 0.20 86 1011.8
20260507144508 13 348 1.6 9.7 0.00 0.30 0.20 88 1011.8
20260507143008 13 26 0.0 3.2 0.00 0.30 0.20 89 1011.5
20260507141507 13 26 0.0 4.8 0.00 0.30 0.20 88 1011.8
20260507140014 13 355 0.0 6.4 0.00 0.30 0.20 90 1012.0
20260507134521 13 355 0.0 3.2 0.00 0.33 0.20 90 1012.0
20260507133009 13 351 0.0 8.0 0.00 0.33 0.20 91 1011.9
20260507131513 13 89 0.0 4.8 0.00 0.33 0.20 91 1011.4
20260507130004 13 26 0.0 3.2 0.00 0.33 0.20 93 1011.4
20260507124503 13 18 0.0 1.6 0.00 0.33 0.20 94 1011.8
20260507123008 12 18 0.0 1.6 0.00 0.33 0.20 94 1011.7
20260507121501 12 18 0.0 1.6 0.00 0.33 0.20 95 1011.2
20260507114602 12 29 0.0 0.0 0.00 0.33 0.20 96 1011.5
20260507113059 12 19 0.0 3.2 0.00 0.33 0.20 96 1011.5
20260507111555 12 19 0.0 1.6 0.00 0.33 0.20 96 1011.3
20260507110107 12 19 0.0 1.6 0.00 0.33 0.20 96 1011.3
20260507104553 12 19 0.0 1.6 0.00 0.33 0.20 96 1010.9
20260507103055 13 19 0.0 1.6 0.05 0.33 0.20 96 1011.0
20260507101550 13 17 0.0 4.8 0.08 0.33 0.20 95 1010.6
20260507100045 13 269 0.0 11.3 0.10 0.33 0.20 95 1010.5
20260507094542 15 360 0.0 4.8 0.15 0.33 0.20 94 1010.6
20260507093038 16 70 1.6 4.8 0.10 0.28 0.15 94 1010.1
20260507091538 18 355 3.2 9.7 0.10 0.25 0.13 97 1009.9
20260507090039 18 5 0.0 4.8 0.08 0.23 0.10 97 1009.8
20260507084538 18 5 0.0 0.0 0.03 0.18 0.05 96 1009.9
20260507083037 18 5 0.0 3.2 0.03 0.18 0.05 96 1009.7
20260507081530 18 5 0.0 4.8 0.00 0.15 0.03 96 1009.4
20260507080030 18 72 0.0 0.0 0.00 0.15 0.03 95 1009.3
20260507074539 18 73 0.0 1.6 0.03 0.15 0.03 95 1008.6
20260507073025 18 180 0.0 8.0 0.03 0.15 0.03 95 1008.8
20260507071524 19 225 0.0 6.4 0.03 0.15 0.03 94 1008.8
20260507070022 19 251 0.0 8.0 0.03 0.15 0.03 93 1009.5
20260507064521 19 173 3.2 9.7 0.00 0.13 0.00 91 1009.3
20260507063019 20 175 4.8 9.7 0.00 0.13 0.00 90 1009.2
20260507061518 20 182 1.6 6.4 0.00 0.13 0.00 89 1008.9
20260507060015 20 159 3.2 9.7 0.00 0.13 0.00 88 1008.9
20260507054515 20 175 1.6 6.4 0.00 0.13 0.00 88 1009.1
20260507053012 20 155 0.0 6.4 0.00 0.13 0.00 88 1009.3
20260507051510 20 184 0.0 4.8 0.00 0.13 0.00 88 1009.4
20260507050006 20 252 1.6 8.0 0.00 0.13 0.00 88 1009.8
20260507044504 20 194 1.6 8.0 0.00 0.13 0.00 87 1010.5
20260507043003 20 202 0.0 4.8 0.00 0.13 0.00 87 1010.7
20260507041602 20 189 1.6 4.8 0.00 0.13 0.00 87 1010.6
20260507040104 20 182 1.6 4.8 0.00 0.13 0.00 87 1010.5
20260507034601 20 177 1.6 8.0 0.00 0.13 0.13 88 1010.3
20260507033058 19 200 1.6 6.4 0.00 0.13 0.13 89 1010.3
20260507031557 19 290 0.0 4.8 0.00 0.13 0.13 91 1009.7
20260507030058 18 240 0.0 6.4 0.00 0.13 0.13 91 1009.9
20260507024601 18 211 1.6 8.0 0.00 0.13 0.13 91 1009.8
20260507023057 18 181 0.0 4.8 0.00 0.13 0.13 91 1009.9
20260507021557 18 197 0.0 1.6 0.00 0.13 0.13 91 1010.0
20260507020054 18 197 0.0 4.8 0.00 0.13 0.13 91 1010.4
20260507014550 18 197 0.0 3.2 0.00 0.13 0.13 92 1010.5
20260507013047 18 197 0.0 1.6 0.00 0.13 0.13 91 1010.4
20260507011548 18 197 0.0 0.0 0.00 0.13 0.13 91 1009.9
20260507010104 19 197 0.0 0.0 0.00 0.13 0.13 89 1010.0
20260507004546 19 197 0.0 0.0 0.00 0.13 0.13 87 1009.9
20260507003045 20 198 0.0 4.8 0.00 0.13 0.13 86 1010.1
20260507001551 20 195 0.0 6.4 0.00 0.13 0.13 85 1009.9
20260507000044 20 190 0.0 4.8 0.00 0.13 0.13 84 1010.2
20260506234543 21 173 0.0 4.8 0.00 0.13 0.13 84 1010.0
20260506233052 21 192 0.0 4.8 0.00 0.13 0.13 83 1009.7
20260506231542 21 175 1.6 8.0 0.00 0.13 0.13 82 1009.7
20260506230044 21 157 1.6 11.3 0.00 0.13 0.13 82 1009.8
20260506224541 21 199 1.6 8.0 0.00 0.13 0.13 81 1009.8
20260506223043 21 186 0.0 4.8 0.00 0.13 0.13 81 1009.7
20260506221545 21 180 3.2 11.3 0.00 0.13 0.13 80 1009.7
20260506220046 21 211 0.0 6.4 0.00 0.13 0.13 79 1009.7
20260506214537 21 180 1.6 11.3 0.00 0.13 0.13 78 1009.6
20260506213036 22 186 3.2 11.3 0.00 0.13 0.13 77 1009.8
20260506211540 21 165 1.6 11.3 0.00 0.13 0.13 78 1010.2
20260506210031 21 207 4.8 17.7 0.00 0.13 0.13 78 1009.8
20260506204528 21 279 1.6 11.3 0.00 0.13 0.13 79 1009.7
20260506201540 21 200 3.2 14.5 0.00 0.13 0.13 80 1009.9
20260506200042 21 146 3.2 11.3 0.00 0.13 0.13 81 1009.4
20260506194537 21 175 4.8 12.9 0.00 0.13 0.13 82 1008.9
20260506193034 21 185 3.2 12.9 0.00 0.13 0.13 82 1009.0
20260506190043 20 198 1.6 12.9 0.00 0.13 0.13 83 1009.8
20260506184544 20 76 6.4 16.1 0.00 0.13 0.13 84 1010.3
20260506183035 19 188 3.2 14.5 0.00 0.13 0.13 87 1010.8